Home > Weather > Nagasaki > Past weeks

Flag for Japan Past Weather in Nagasaki, Japan — Yesterday and Last 2 Weeks

Now
79 °F

Passing clouds.


Feels Like: 84 °F
Forecast: 79 / 87 °F
Wind: 1 mph from South

Location: Nagasaki

Current Time: Jul 28, 2016 at 4:18:51 AM

Latest Report: Jul 28, 2016 at 3:00 AM


Visibility: 13 mi

Pressure: 29.79 "Hg

Humidity: 93%

Dew Point: 77 °F

Location of NagasakiLocation

Past Weather in Nagasaki — Graph

°F

Nagasaki Temperature Yesterday

Maximum temperature yesterday: 89 °F (at 1:00 PM)
Minimum temperature yesterday: 78 °F (at 5:00 AM)
Average temperature yesterday: 83 °F

High & Low Weather Summary for the Past Weeks

 TemperatureHumidityPressure
High90 °F (Jul 24, 12:00 PM)99% (Jul 13, 11:00 PM)29.90 "Hg (Jul 13, 11:00 PM)
Low74 °F (Jul 18, 5:00 AM)52% (Jul 26, 3:00 PM)29.55 "Hg (Jul 14, 4:00 PM)
Average82 °F79%29.78 "Hg
* Reported Jul 13 3:00 AM — Jul 28 3:00 AM, Nagasaki, Weather by CustomWeather, © 2016

Note: Actual official high and low records may vary slightly from our data, if they occured in-between our weather recording intervals... More about our weather records

Advertising

Nagasaki Weather History for the Previous 24 Hours

Scroll right to see more
 ConditionsComfort  
Time TempWeatherWind HumidityBarometerVisibility
3:00 AM
Thu, Jul 28
79 °FPassing clouds.1 mph93%29.79 "Hg12 mi
2:00 AM79 °FWarm.1 mph91%29.80 "HgN/A
1:00 AM80 °FWarm.No wind90%29.80 "HgN/A
12:00 AM80 °FWarm.2 mph88%29.80 "HgN/A
11:00 PM
Wed, Jul 27
80 °FWarm.1 mph84%29.81 "HgN/A
10:00 PM81 °FWarm.1 mph83%29.80 "HgN/A
9:00 PM82 °FClear.2 mph85%29.79 "Hg19 mi
8:00 PM82 °FWarm.3 mph83%29.77 "HgN/A
7:00 PM83 °FWarm.7 mph78%29.76 "HgN/A
6:00 PM85 °FPassing clouds.6 mph72%29.76 "Hg19 mi
5:00 PM86 °FWarm.7 mph67%29.76 "HgN/A
4:00 PM86 °FWarm.8 mph70%29.77 "HgN/A
3:00 PM87 °FPassing clouds.9 mph68%29.77 "Hg19 mi
2:00 PM87 °FWarm.7 mph64%29.77 "HgN/A
1:00 PM89 °FHot.7 mph61%29.78 "HgN/A
12:00 PM88 °FScattered clouds.6 mph60%29.79 "Hg19 mi
11:00 AM87 °FWarm.8 mph63%29.80 "HgN/A
10:00 AM86 °FWarm.5 mph67%29.81 "HgN/A
9:00 AM84 °FPartly sunny.5 mph72%29.81 "Hg19 mi
8:00 AM82 °FWarm.2 mph81%29.80 "HgN/A
7:00 AM79 °FWarm.1 mph90%29.80 "HgN/A
6:00 AM78 °FOvercast.No wind93%29.80 "Hg16 mi
5:00 AM78 °FWarm.No wind92%29.80 "HgN/A
4:00 AM78 °FWarm.No wind92%29.79 "HgN/A
Weather by CustomWeather, © 2016

See weather overviewHow to use our weather pages